This demonstration page uses our WeatherBlox Daily Observations layout. Learn more.

Hourly Observations for October 3, 2019

Temp ( °F °C ) Dew Point ( °F °C ) Humidity (%) Winds ( mph kmh ) Pressure ( in mb ) Visibility ( mi km ) Precip ( " mm )
12:15 am 00:15 Clear 42 5.7 42 5.6 99 99 Calm 30.21 1023 10 16.09344 0 0
12:35 am 00:35 Clear 43 6 43 5.9 99 99 WNW 3 6 30.21 1023 10 16.09344 0 0
12:55 am 00:55 Clear 42 5.5 42 5.4 99 99 Calm 30.21 1023 10 16.09344 0 0
1:15 am 01:15 Clear 41 5.2 41 5.2 100 100 WNW 3 6 30.21 1023 10 16.09344 0 0
1:35 am 01:35 Clear 40 4.7 40 4.7 100 100 W 3 6 30.21 1023 10 16.09344 0 0
1:55 am 01:55 Clear 41 5.1 41 5.1 100 100 W 5 7 30.21 1023 10 16.09344 0 0
2:15 am 02:15 Clear 41 5 41 5 100 100 WNW 3 6 30.24 1024 10 16.09344 0 0
2:35 am 02:35 Clear 41 4.8 41 4.8 100 100 NW 3 6 30.24 1024 10 16.09344 0 0
2:55 am 02:55 Clear 40 4.2 40 4.2 100 100 NNW 3 6 30.27 1025 10 16.09344 0 0
3:15 am 03:15 Clear 41 5 41 5 100 100 NNW 7 11 30.24 1024 10 16.09344 0 0
3:35 am 03:35 Clear 41 5 41 5 100 100 N 5 7 30.24 1024 10 16.09344 0 0
3:55 am 03:55 Clear 39 4.1 39 4.1 100 100 Calm 30.3 1026 10 16.09344 0 0
4:15 am 04:15 Clear 39 3.8 39 3.8 100 100 N 5 7 30.3 1026 10 16.09344 0 0
4:35 am 04:35 Clear 40 4.2 40 4.2 100 100 N 5 7 30.3 1026 10 16.09344 0 0
4:55 am 04:55 Clear 40 4.5 40 4.5 100 100 N 7 11 30.3 1026 10 16.09344 0 0
5:15 am 05:15 Clear 39 4.1 39 4.1 100 100 N 3 6 30.33 1027 10 16.09344 0 0
5:35 am 05:35 Clear 38 3.5 38 3.5 100 100 Calm 30.33 1027 10 16.09344 0 0
5:55 am 05:55 Clear with Mist and Fog 38 3.3 38 3.3 100 100 Calm 30.33 1027 3 4.828032 0 0
6:15 am 06:15 Mostly Cloudy with Mist and Fog 38 3.2 38 3.2 100 100 Calm 30.36 1028 1.5 2.414016 0 0
6:35 am 06:35 Mostly Cloudy with Mist and Fog 37 2.6 37 2.6 100 100 NW 5 7 30.36 1028 3 4.828032 0 0
6:55 am 06:55 Partly Cloudy 37 3 37 3 100 100 NNW 3 6 30.36 1028 7 11.265408 0 0
7:15 am 07:15 Cloudy with Fog 38 3.3 38 3.3 100 100 NNW 3 6 30.36 1028 0.5 0.804672 0 0
7:35 am 07:35 Cloudy with Fog 38 3.5 38 3.5 100 100 NW 3 6 30.36 1028 0.25 0.402336 0 0
7:55 am 07:55 Cloudy with Fog 38 3.6 38 3.6 100 100 N 3 6 30.36 1028 0.25 0.402336 0 0
8:15 am 08:15 Cloudy with Fog 39 4 39 4 100 100 Calm 30.36 1028 0.25 0.402336 0 0
8:35 am 08:35 Cloudy with Fog 40 4.3 40 4.3 100 100 Calm 30.39 1029 0.25 0.402336 0 0
8:55 am 08:55 Cloudy with Fog 41 4.9 41 4.9 100 100 NW 3 6 30.39 1029 0.5 0.804672 0 0
9:15 am 09:15 Cloudy with Mist and Fog 42 5.7 42 5.7 100 100 WNW 5 7 30.36 1028 0.75 1.207008 0 0
9:35 am 09:35 Cloudy with Mist and Fog 42 5.7 42 5.7 100 100 WNW 5 7 30.36 1028 0.75 1.207008 0 0
9:55 am 09:55 Cloudy with Mist and Fog 44 6.4 44 6.4 100 100 Calm 30.36 1028 4 6.437376 0 0
10:15 am 10:15 Mostly Cloudy 45 7.2 45 7.2 100 100 NW 5 7 30.36 1028 10 16.09344 0 0
10:35 am 10:35 Partly Cloudy 46 7.8 46 7.8 100 100 NNW 5 7 30.36 1028 10 16.09344 0 0
10:55 am 10:55 Sunny 48 8.8 48 8.8 100 100 NNE 5 7 30.33 1027 10 16.09344 0 0
11:15 am 11:15 Sunny 50 10 44 6.9 81 81 NNW 6 9 30.33 1027 10 16.09344 0 0
11:35 am 11:35 Sunny 51 10.4 44 6.9 79 79 Calm 30.36 1028 10 16.09344 0 0
11:55 am 11:55 Sunny 52 11 45 7 77 77 Calm 30.33 1027 10 16.09344 0 0
12:15 pm 12:15 Sunny 53 11.7 45 7.2 74 74 Calm 30.33 1027 10 16.09344 0 0
12:35 pm 12:35 Sunny 54 12.1 43 6.3 68 68 N 3 6 30.3 1026 10 16.09344 0 0
12:55 pm 12:55 Sunny 55 13 44 6.6 65 65 NE 3 6 30.3 1026 10 16.09344 0 0
1:15 pm 13:15 Sunny 56 13.4 45 7.2 66 66 NNW 6 9 30.3 1026 10 16.09344 0 0
1:35 pm 13:35 Sunny 56 13.6 45 7.3 66 66 Calm 30.3 1026 10 16.09344 0 0
1:55 pm 13:55 Sunny 57 14.1 45 7.2 63 63 Calm 30.3 1026 10 16.09344 0 0
2:15 pm 14:15 Sunny 58 14.5 45 7.2 62 62 NE 3 6 30.27 1025 10 16.09344 0 0
2:35 pm 14:35 Sunny 59 14.9 44 6.5 57 57 Calm 30.27 1025 10 16.09344 0 0
2:55 pm 14:55 Sunny 60 15.7 45 7.2 57 57 NNE 5 7 30.24 1024 10 16.09344 0 0
3:15 pm 15:15 Sunny 60 15.7 41 5.1 50 50 Calm 30.24 1024 10 16.09344 0 0
3:35 pm 15:35 Sunny 61 16.3 44 6.5 53 53 NNE 6 9 30.21 1023 10 16.09344 0 0
3:55 pm 15:55 Sunny 62 16.5 43 6 50 50 ESE 3 6 30.21 1023 10 16.09344 0 0
4:15 pm 16:15 Sunny 62 16.6 43 6.1 50 50 E 5 7 30.21 1023 10 16.09344 0 0
4:35 pm 16:35 Hazy 62 16.7 42 5.5 48 48 E 3 6 30.21 1023 2.5 4.02336 0 0
4:55 pm 16:55 Sunny 63 17.3 41 5 44 44 Calm 30.21 1023 10 16.09344 0 0
5:15 pm 17:15 Sunny 63 17.1 43 5.9 48 48 E 7 11 30.21 1023 10 16.09344 0 0
5:35 pm 17:35 Sunny 63 17.1 43 6.1 49 49 E 6 9 30.21 1023 10 16.09344 0 0
5:55 pm 17:55 Sunny 63 17 43 6.2 49 49 E 6 9 30.18 1022 10 16.09344 0 0
6:15 pm 18:15 Sunny 62 16.6 42 5.8 49 49 E 7 11 30.18 1022 10 16.09344 0 0
6:35 pm 18:35 Sunny 61 16.1 44 6.7 54 54 E 6 9 30.18 1022 10 16.09344 0 0
6:55 pm 18:55 Sunny 59 15.1 44 6.7 57 57 E 5 7 30.18 1022 10 16.09344 0 0
7:15 pm 19:15 Sunny 56 13.5 46 7.7 68 68 E 6 9 30.24 1024 10 16.09344 0 0
7:35 pm 19:35 Clear 54 12.1 46 7.8 75 75 E 6 9 30.24 1024 10 16.09344 0 0
7:55 pm 19:55 Partly Cloudy 54 12.1 45 7.3 73 73 E 6 9 30.24 1024 10 16.09344 0 0
8:15 pm 20:15 Mostly Cloudy 53 11.5 45 7.3 76 76 E 6 9 30.27 1025 10 16.09344 0 0
8:35 pm 20:35 Mostly Cloudy 51 10.7 46 7.5 81 81 E 6 9 30.27 1025 10 16.09344 0 0
8:55 pm 20:55 Partly Cloudy 50 10 45 7.2 83 83 E 7 11 30.27 1025 10 16.09344 0 0
9:15 pm 21:15 Partly Cloudy 49 9.5 45 7.1 85 85 E 6 9 30.27 1025 10 16.09344 0 0
9:35 pm 21:35 Partly Cloudy 49 9.2 45 7.1 87 87 E 6 9 30.27 1025 10 16.09344 0 0
9:55 pm 21:55 Mostly Cloudy 48 9 45 7 87 87 E 6 9 30.27 1025 10 16.09344 0 0
10:15 pm 22:15 Partly Cloudy 47 8.6 44 6.7 88 88 E 7 11 30.3 1026 10 16.09344 0 0
10:35 pm 22:35 Partly Cloudy 49 9.2 44 6.9 86 86 E 7 11 30.3 1026 7 11.265408 0 0
10:55 pm 22:55 Cloudy 49 9.2 45 7 86 86 E 8 13 30.3 1026 10 16.09344 0 0
11:15 pm 23:15 Cloudy 49 9.7 45 7.2 85 85 E 9 15 30.3 1026 10 16.09344 0 0
11:35 pm 23:35 Cloudy 50 10 45 7.2 83 83 E 10 17 30.3 1026 10 16.09344 0 0
11:55 pm 23:55 Cloudy 51 10.3 46 7.5 83 83 ESE 10 17 30.3 1026 10 16.09344 0 0

Powered by AerisWeather